Weather History for St.-Anicet, QC

Change the Weather History Date:

Friday, September 20, 2013

  Actual Average Record
Temperature  
Mean Temperature 64 °F -  
Max Temperature 84 °F - - ()
Min Temperature 45 °F - - ()
Growing Degree Days 14 (Base 50)    
Moisture  
Dew Point 56 °F    
Average Humidity 81    
Maximum Humidity 100    
Minimum Humidity 39    
Precipitation  
Precipitation 0.00 in - - ()
Sea Level Pressure  
Sea Level Pressure 29.94 in    
Wind  
Wind Speed 1 mph ()    
Max Wind Speed 5 mph    
Max Gust Speed -    
T = Trace of Precipitation, MM = Missing Value Source: Averaged Metar Reports

Daily Weather History Graph

Daily Weather History Graph

Search for Another Location

Airport:

Trip Planner

Search our weather history database for the weather conditions in past years. The results will help you decide how hot, cold, wet, or windy it might be!

Date:

Astronomy

Sep. 20, 2013 Rise Set
Actual Time 6:42 AM EDT 6:58 PM EDT
Civil Twilight 6:12 AM EDT 7:27 PM EDT
Nautical Twilight 5:37 AM EDT 8:01 PM EDT
Astronomical Twilight 5:02 AM EDT 8:37 PM EDT
Moon 7:23 PM EDT (9/20) 7:59 AM EDT (9/20)
Length of Visible Light 13h 14m
Length of Day
12h 16m
Full, 98% of the Moon is Illuminated
Sep 20
Full
Sep 26
Last Quarter
Oct 4
New
Oct 11
First Quarter
Oct 18
Full

Hourly Weather History & Observations

Time (EDT) Temp. Heat Index Dew Point Humidity Pressure Visibility Wind Dir Wind Speed Gust Speed Precip Events Conditions
12:00 AM 50.5 °F - 50.2 °F 99% 30.03 in - Calm Calm - N/A   Unknown
1:00 AM 49.3 °F - 48.9 °F 99% 30.02 in - Calm Calm - N/A   Unknown
2:00 AM 49.6 °F - 49.5 °F 99% 30.02 in - NNE 1.2 mph - N/A   Unknown
3:00 AM 47.3 °F - 46.9 °F 99% 30.01 in - Calm Calm - N/A   Unknown
4:00 AM 47.3 °F - 47.1 °F 99% 30.01 in - Calm Calm - N/A   Unknown
5:00 AM 46.8 °F - 46.6 °F 99% 30.01 in - NNW 1.2 mph - N/A   Unknown
6:00 AM 46.6 °F - 46.4 °F 99% 30.01 in - Calm Calm - N/A   Unknown
7:00 AM 47.1 °F - 46.9 °F 99% 30.03 in - ESE 1.2 mph - N/A   Unknown
8:00 AM 52 °F - 52 °F 100% 30.03 in - Calm Calm - -  
8:00 AM 52.2 °F - 52.2 °F 100% 30.03 in - Calm Calm - N/A   Unknown
9:00 AM 59.7 °F - 56.1 °F 88% 30.01 in - East 3.5 mph - N/A   Unknown
10:00 AM 68.0 °F - 60.1 °F 76% 29.99 in - ENE 2.3 mph - N/A   Unknown
11:00 AM 73.9 °F - 60.3 °F 62% 30.00 in - West 2.3 mph - N/A   Unknown
12:00 PM 74.5 °F - 58.8 °F 58% 29.97 in - ENE 2.3 mph - N/A   Unknown
1:00 PM 77.5 °F - 62.4 °F 59% 29.94 in - East 3.5 mph - N/A   Unknown
2:00 PM 81 °F - 60 °F 39% 29.91 in - South 3.5 mph - -  
2:00 PM 80.6 °F 81.4 °F 60.3 °F 50% 29.91 in - South 3.5 mph - N/A   Unknown
3:00 PM 82.0 °F 83.1 °F 62.6 °F 52% 29.88 in - NW 3.5 mph - N/A   Unknown
4:00 PM 84.0 °F 85.4 °F 63.9 °F 51% 29.87 in - NNW 2.3 mph - N/A   Unknown
5:00 PM 80.8 °F 82.1 °F 63.3 °F 55% 29.85 in - NNE 4.6 mph - N/A   Unknown
6:00 PM 77.4 °F - 64.8 °F 65% 29.84 in - ENE 3.5 mph - N/A   Unknown
7:00 PM 67.6 °F - 62.8 °F 84% 29.83 in - NW 1.2 mph - N/A   Unknown
8:00 PM 61.5 °F - 60.4 °F 96% 29.83 in - SSE 2.3 mph - N/A   Unknown
9:00 PM 57.6 °F - 56.7 °F 97% 29.83 in - Calm Calm - N/A   Unknown
10:00 PM 56.7 °F - 55.9 °F 97% 29.82 in - West 1.2 mph - N/A   Unknown
11:00 PM 55.4 °F - 54.9 °F 98% 29.81 in - NE 1.2 mph - N/A   Unknown